Sault Ste Marie, MI

4:45 PM EST on January 17, 2017 (GMT -0500)
Sault Ste Marie Municipal / Sanderson Field

Weather History for KANJ - September, 2013

Change the Weather History Date:

Saturday, September 28, 2013

  Actual Average Record
Temperature  
Mean Temperature 62 °F 52 °F  
Max Temperature 70 °F 61 °F 80 °F (1922)
Min Temperature 53 °F 44 °F 27 °F (1980)
Degree Days  
Heating Degree Days 3 13  
Month to date heating degree days 234 228  
Since 1 July heating degree days 350 375  
Cooling Degree Days 0 0  
Month to date cooling degree days 14 15  
Year to date cooling degree days 266 193  
Growing Degree Days 11 (Base 50)    
Moisture  
Dew Point 54 °F    
Average Humidity 77    
Maximum Humidity 93    
Minimum Humidity 61    
Precipitation  
Precipitation 0.00 in 0.13 in 1.05 in (1927)
Month to date precipitation 6.59 3.57  
Year to date precipitation 34.88 22.74  
Sea Level Pressure  
Sea Level Pressure 30.06 in    
Wind  
Wind Speed 11 mph (ESE)    
Max Wind Speed 22 mph    
Max Gust Speed 29 mph    
Visibility 10 miles    
Events      
T = Trace of Precipitation, MM = Missing Value Source: NWS Daily Summary

Daily Weather History Graph

Daily Weather History Graph

Search for Another Location

Airport or City:

Trip Planner

Search our weather history database for the weather conditions in past years. The results will help you decide how hot, cold, wet, or windy it might be!

Date:

Astronomy

Sep. 28, 2013 Rise Set
Actual Time 7:32 AM EDT 7:22 PM EDT
Civil Twilight 7:02 AM EDT 7:52 PM EDT
Nautical Twilight 6:27 AM EDT 8:27 PM EDT
Astronomical Twilight 5:51 AM EDT 9:03 PM EDT
Moon 1:01 AM EDT (9/28) 3:57 PM EDT (9/28)
Length of Visible Light 12h 50m
Length of Day
11h 50m
Last Quarter, 36% of the Moon is Illuminated
Sep 28
Last Quarter
Oct 4
New
Oct 11
First Quarter
Oct 18
Full
Oct 26
Last Quarter

Hourly Weather History & Observations

Time (EDT) Temp. Dew Point Humidity Pressure Visibility Wind Dir Wind Speed Gust Speed Precip Events Conditions
12:55 AM 55.9 °F 52.0 °F 87% 30.17 in 10.0 mi East 4.6 mph - N/A   Clear
1:55 AM 55.0 °F 52.0 °F 89% 30.17 in 10.0 mi East 5.8 mph - N/A   Clear
2:55 AM 55.0 °F 52.0 °F 89% 30.16 in 10.0 mi East 5.8 mph - N/A   Clear
3:55 AM 54.0 °F 52.0 °F 93% 30.16 in 10.0 mi East 3.5 mph - N/A   Clear
4:55 AM 55.0 °F 52.0 °F 89% 30.15 in 10.0 mi ESE 4.6 mph - N/A   Clear
5:55 AM 53.1 °F 51.1 °F 93% 30.16 in 9.0 mi East 5.8 mph - N/A   Clear
6:55 AM 53.1 °F 51.1 °F 93% 30.17 in 8.0 mi East 5.8 mph - N/A   Clear
7:55 AM 54.0 °F 52.0 °F 93% 30.17 in 6.0 mi East 5.8 mph - N/A   Clear
8:55 AM 57.0 °F 54.0 °F 89% 30.15 in 10.0 mi ESE 5.8 mph - N/A   Clear
9:55 AM 60.1 °F 55.9 °F 86% 30.15 in 10.0 mi ESE 9.2 mph 17.3 mph N/A   Partly Cloudy
10:55 AM 64.0 °F 55.9 °F 75% 30.13 in 10.0 mi SE 13.8 mph - N/A   Partly Cloudy
11:55 AM 66.0 °F 55.9 °F 70% 30.11 in 10.0 mi SE 13.8 mph 20.7 mph N/A   Clear
12:55 PM 66.9 °F 54.0 °F 63% 30.07 in 10.0 mi SSE 15.0 mph 23.0 mph N/A   Clear
1:55 PM 66.9 °F 55.0 °F 66% 30.05 in 10.0 mi SE 17.3 mph 26.5 mph N/A   Partly Cloudy
2:55 PM 68.0 °F 55.9 °F 65% 30.01 in 10.0 mi SSE 15.0 mph 25.3 mph N/A   Clear
3:55 PM 69.1 °F 55.9 °F 63% 29.99 in 10.0 mi SE 15.0 mph 25.3 mph N/A   Clear
4:55 PM 69.1 °F 55.9 °F 63% 29.96 in 10.0 mi SSE 19.6 mph 24.2 mph N/A   Clear
5:55 PM 68.0 °F 55.9 °F 65% 29.94 in 10.0 mi SE 16.1 mph 27.6 mph N/A   Clear
6:55 PM 64.0 °F 55.9 °F 75% 29.94 in 10.0 mi ESE 11.5 mph - N/A   Clear
7:55 PM 62.1 °F 55.9 °F 80% 29.93 in 10.0 mi SE 12.7 mph 19.6 mph N/A   Clear
8:55 PM 62.1 °F 55.9 °F 80% 29.91 in 10.0 mi SE 9.2 mph 18.4 mph N/A   Clear
9:55 PM 61.0 °F 55.9 °F 83% 29.89 in 10.0 mi ESE 8.1 mph - N/A   Clear
10:55 PM 63.0 °F 55.0 °F 75% 29.87 in 10.0 mi ESE 10.4 mph - N/A   Overcast
11:55 PM 64.0 °F 55.0 °F 73% 29.84 in 10.0 mi SSE 11.5 mph 18.4 mph N/A   Overcast